Weather History for Lebanon, NH

Change the Weather History Date:

Tuesday, November 20, 2012

  Actual Average Record
Temperature  
Mean Temperature 31 °F -  
Max Temperature 43 °F 42 °F 71 °F (1991)
Min Temperature 19 °F 26 °F 8 °F (1986)
Degree Days  
Heating Degree Days 34    
Moisture  
Dew Point 22 °F    
Average Humidity 76    
Maximum Humidity 85    
Minimum Humidity 49    
Precipitation  
Precipitation 0.00 in - - ()
Sea Level Pressure  
Sea Level Pressure 30.23 in    
Wind  
Wind Speed 0 mph (NE)    
Max Wind Speed 6 mph    
Max Gust Speed -    
Visibility 9 miles    
Events      
Averages and records for this station are not official NWS values.
T = Trace of Precipitation, MM = Missing Value Source: NWS Daily Summary

Daily Weather History Graph

Daily Weather History Graph

Search for Another Location

Airport:

Trip Planner

Search our weather history database for the weather conditions in past years. The results will help you decide how hot, cold, wet, or windy it might be!

Date:

Astronomy

Nov. 20, 2012 Rise Set
Actual Time 6:50 AM EST 4:19 PM EST
Civil Twilight 6:18 AM EST 4:50 PM EST
Nautical Twilight 5:43 AM EST 5:25 PM EST
Astronomical Twilight 5:09 AM EST 5:59 PM EST
Moon 12:16 PM EST (11/20) 11:55 PM EST (11/20)
Length of Visible Light 10h 31m
Length of Day
9h 29m
Waxing Crescent, 51% of the Moon is Illuminated
Nov 20
Waxing Crescent
Nov 28
Full
Dec 6
Last Quarter
Dec 13
New
Dec 20
First Quarter

Hourly Weather History & Observations

Time (EST) Temp. Windchill Dew Point Humidity Pressure Visibility Wind Dir Wind Speed Gust Speed Precip Events Conditions
12:53 AM 21.0 °F - 16.0 °F 81% 30.29 in 10.0 mi Calm Calm - N/A   Clear
1:53 AM 21.0 °F - 16.0 °F 81% 30.29 in 8.0 mi Calm Calm - N/A   Clear
2:53 AM 19.9 °F - 16.0 °F 85% 30.28 in 9.0 mi Calm Calm - N/A   Clear
3:53 AM 19.9 °F - 16.0 °F 85% 30.28 in 9.0 mi Calm Calm - N/A   Clear
4:53 AM 19.0 °F - 15.1 °F 85% 30.27 in 9.0 mi Calm Calm - N/A   Clear
5:53 AM 19.9 °F - 15.1 °F 81% 30.27 in 10.0 mi Calm Calm - N/A   Clear
6:53 AM 21.0 °F - 17.1 °F 85% 30.27 in 8.0 mi Calm Calm - N/A   Clear
7:53 AM 23.0 °F - 19.0 °F 85% 30.29 in 8.0 mi Calm Calm - N/A   Clear
8:53 AM 27.0 °F - 21.9 °F 81% 30.27 in 7.0 mi Calm Calm - N/A   Clear
9:53 AM 30.0 °F - 24.1 °F 79% 30.26 in 8.0 mi Calm Calm - N/A   Clear
10:53 AM 34.0 °F - 24.1 °F 67% 30.23 in 9.0 mi Calm Calm - N/A   Clear
11:53 AM 36.0 °F - 23.0 °F 59% 30.21 in 10.0 mi Calm Calm - N/A   Clear
12:53 PM 39.0 °F - 24.1 °F 55% 30.19 in 10.0 mi Calm Calm - N/A   Clear
1:53 PM 41.0 °F - 25.0 °F 53% 30.17 in 10.0 mi Calm Calm - N/A   Clear
2:53 PM 43.0 °F - 25.0 °F 49% 30.17 in 10.0 mi Calm Calm - N/A   Clear
3:53 PM 37.9 °F - 27.0 °F 65% 30.18 in 10.0 mi Calm Calm - N/A   Clear
4:53 PM 30.9 °F - 25.0 °F 79% 30.19 in 10.0 mi Calm Calm - N/A   Clear
5:53 PM 28.0 °F - 23.0 °F 81% 30.21 in 10.0 mi Calm Calm - N/A   Clear
6:53 PM 30.0 °F 24.1 °F 25.0 °F 82% 30.20 in 10.0 mi NE 5.8 mph - N/A   Clear
7:53 PM 30.9 °F 27.5 °F 25.0 °F 79% 30.21 in 10.0 mi NE 3.5 mph - N/A   Clear
8:53 PM 30.9 °F - 26.1 °F 82% 30.20 in 10.0 mi Calm Calm - N/A   Mostly Cloudy
9:53 PM 30.9 °F - 26.1 °F 82% 30.21 in 10.0 mi Calm Calm - N/A   Scattered Clouds
10:53 PM 30.9 °F - 26.1 °F 82% 30.20 in 10.0 mi Calm Calm - N/A   Scattered Clouds
11:53 PM 28.9 °F - 25.0 °F 85% 30.21 in 10.0 mi Calm Calm - N/A   Scattered Clouds